W9IF-4 Weather Reports


Display with metric or nautical units.
time (UTC)temp
F
wind
direction
speed
MPH
gust
MPH
rain 1hr
in
rain 24hr
in
rain mn
in
humidity
%
barometer
mb
20150703172046 74 224 0.0 0.0 0.00 0.00 0.00
20150703171946 75 224 0.0 0.0 0.00 0.00 0.00
20150703171846 74 224 0.0 0.0 0.00 0.00 0.00
20150703171746 74 224 0.0 0.0 0.00 0.00 0.00
20150703171646 74 224 0.0 0.0 0.00 0.00 0.00
20150703171546 74 224 0.0 0.0 0.00 0.00 0.00
20150703171246 73 224 0.0 0.0 0.00 0.00 0.00
20150703171146 72 224 0.0 0.0 0.00 0.00 0.00
20150703171046 72 224 0.0 0.0 0.00 0.00 0.00
20150703170946 72 224 0.0 0.0 0.00 0.00 0.00
20150703170746 72 224 0.0 0.0 0.00 0.00 0.00
20150703170646 72 224 0.0 0.0 0.00 0.00 0.00
20150703170546 72 224 0.0 0.0 0.00 0.00 0.00
20150703170346 73 224 0.0 0.0 0.00 0.00 0.00
20150703170246 72 224 0.0 0.0 0.00 0.00 0.00
20150703170146 72 224 0.0 0.0 0.00 0.00 0.00
20150703170046 72 224 0.0 0.0 0.00 0.00 0.00
20150703165946 73 224 0.0 0.0 0.00 0.00 0.00
20150703165846 73 224 0.0 0.0 0.00 0.00 0.00
20150703165746 73 224 0.0 0.0 0.00 0.00 0.00
20150703165646 72 224 0.0 0.0 0.00 0.00 0.00
20150703165546 73 224 0.0 0.0 0.00 0.00 0.00
20150703165446 73 224 0.0 0.0 0.00 0.00 0.00
20150703165246 73 224 0.0 0.0 0.00 0.00 0.00
20150703165146 72 224 0.0 0.0 0.00 0.00 0.00
20150703165047 72 224 0.0 0.0 0.00 0.00 0.00
20150703164946 71 246 5.0 0.0 0.00 0.00 0.00
20150703164846 71 246 6.0 0.0 0.00 0.00 0.00
20150703164746 72 245 6.0 0.0 0.00 0.00 0.00
20150703164646 72 249 0.0 0.0 0.00 0.00 0.00
20150703164446 73 249 0.0 0.0 0.00 0.00 0.00
20150703164346 72 249 0.0 0.0 0.00 0.00 0.00
20150703164046 72 249 0.0 0.0 0.00 0.00 0.00
20150703163746 71 249 0.0 0.0 0.00 0.00 0.00
20150703163546 71 255 8.0 0.0 0.00 0.00 0.00
20150703163246 71 248 0.0 0.0 0.00 0.00 0.00
20150703163046 70 248 0.0 0.0 0.00 0.00 0.00
20150703162946 69 248 0.0 0.0 0.00 0.00 0.00
20150703162746 70 248 0.0 0.0 0.00 0.00 0.00
20150703162646 69 248 0.0 0.0 0.00 0.00 0.00
20150703162546 69 248 0.0 0.0 0.00 0.00 0.00
20150703162446 71 248 0.0 0.0 0.00 0.00 0.00
20150703162346 71 248 0.0 0.0 0.00 0.00 0.00
20150703162246 71 248 0.0 0.0 0.00 0.00 0.00
20150703162146 71 248 0.0 0.0 0.00 0.00 0.00
20150703161846 71 248 0.0 0.0 0.00 0.00 0.00
20150703161746 70 248 0.0 0.0 0.00 0.00 0.00
20150703161546 69 248 0.0 0.0 0.00 0.00 0.00
20150703161446 70 248 0.0 0.0 0.00 0.00 0.00
20150703161346 70 248 0.0 0.0 0.00 0.00 0.00
20150703161146 70 248 0.0 0.0 0.00 0.00 0.00
20150703161046 70 248 0.0 0.0 0.00 0.00 0.00
20150703160946 70 248 0.0 0.0 0.00 0.00 0.00
20150703160846 70 248 0.0 0.0 0.00 0.00 0.00
20150703160746 70 248 0.0 0.0 0.00 0.00 0.00
20150703160646 69 248 0.0 0.0 0.00 0.00 0.00
20150703160546 70 248 0.0 0.0 0.00 0.00 0.00
20150703160346 69 248 0.0 0.0 0.00 0.00 0.00
20150703160246 70 248 0.0 0.0 0.00 0.00 0.00
20150703160047 68 248 0.0 0.0 0.00 0.00 0.00
20150703155946 68 248 0.0 0.0 0.00 0.00 0.00
20150703155746 68 256 0.0 0.0 0.00 0.00 0.00
20150703155646 68 256 0.0 0.0 0.00 0.00 0.00
20150703155546 69 256 0.0 0.0 0.00 0.00 0.00
20150703155446 68 267 6.0 0.0 0.00 0.00 0.00
20150703155346 68 221 4.0 0.0 0.00 0.00 0.00
20150703155146 68 281 5.0 0.0 0.00 0.00 0.00
20150703155046 68 250 4.0 0.0 0.00 0.00 0.00
20150703154946 68 255 0.0 0.0 0.00 0.00 0.00
20150703154846 68 233 0.0 0.0 0.00 0.00 0.00
20150703154746 68 233 0.0 0.0 0.00 0.00 0.00
20150703154646 68 233 0.0 0.0 0.00 0.00 0.00
20150703154546 68 233 0.0 0.0 0.00 0.00 0.00
20150703154446 68 233 0.0 0.0 0.00 0.00 0.00
20150703154346 68 233 0.0 0.0 0.00 0.00 0.00
20150703154146 67 339 0.0 0.0 0.00 0.00 0.00
20150703154046 67 339 0.0 0.0 0.00 0.00 0.00
20150703153946 67 339 0.0 0.0 0.00 0.00 0.00
20150703153746 67 339 0.0 0.0 0.00 0.00 0.00
20150703153646 68 339 0.0 0.0 0.00 0.00 0.00
20150703153546 68 339 0.0 0.0 0.00 0.00 0.00
20150703153446 67 339 0.0 0.0 0.00 0.00 0.00
20150703153346 67 339 0.0 0.0 0.00 0.00 0.00
20150703153246 67 339 0.0 0.0 0.00 0.00 0.00
20150703153146 67 339 0.0 0.0 0.00 0.00 0.00
20150703153046 67 339 0.0 0.0 0.00 0.00 0.00
20150703152946 67 339 0.0 0.0 0.00 0.00 0.00
20150703152746 66 339 0.0 0.0 0.00 0.00 0.00
20150703152646 66 339 0.0 0.0 0.00 0.00 0.00
20150703152546 66 339 0.0 0.0 0.00 0.00 0.00
20150703152446 66 339 0.0 0.0 0.00 0.00 0.00
20150703152346 66 339 0.0 0.0 0.00 0.00 0.00
20150703152246 66 339 0.0 0.0 0.00 0.00 0.00
20150703152046 65 339 0.0 0.0 0.00 0.00 0.00
20150703151946 65 339 0.0 0.0 0.00 0.00 0.00
20150703151846 66 339 0.0 0.0 0.00 0.00 0.00
20150703151746 66 352 0.0 0.0 0.00 0.00 0.00
20150703151646 66 352 0.0 0.0 0.00 0.00 0.00
20150703151446 66 352 0.0 0.0 0.00 0.00 0.00
20150703151346 66 352 0.0 0.0 0.00 0.00 0.00
20150703151146 65 352 0.0 0.0 0.00 0.00 0.00
20150703151046 65 352 0.0 0.0 0.00 0.00 0.00
20150703150946 65 352 0.0 0.0 0.00 0.00 0.00
20150703150746 65 352 0.0 0.0 0.00 0.00 0.00
20150703150646 65 246 0.0 0.0 0.00 0.00 0.00
20150703150546 65 246 0.0 0.0 0.00 0.00 0.00
20150703150446 65 246 0.0 0.0 0.00 0.00 0.00
20150703150346 65 246 0.0 0.0 0.00 0.00 0.00
20150703150246 65 246 0.0 0.0 0.00 0.00 0.00
20150703150146 65 246 0.0 0.0 0.00 0.00 0.00
20150703150046 66 246 0.0 0.0 0.00 0.00 0.00
20150703145945 66 246 0.0 0.0 0.00 0.00 0.00
20150703145746 66 246 0.0 0.0 0.00 0.00 0.00
20150703145646 66 246 0.0 0.0 0.00 0.00 0.00
20150703145545 66 246 0.0 0.0 0.00 0.00 0.00
20150703145445 66 246 0.0 0.0 0.00 0.00 0.00
20150703145346 66 246 0.0 0.0 0.00 0.00 0.00
20150703145245 66 246 0.0 0.0 0.00 0.00 0.00
20150703145146 66 246 0.0 0.0 0.00 0.00 0.00
20150703145045 66 246 0.0 0.0 0.00 0.00 0.00
20150703144945 66 246 0.0 0.0 0.00 0.00 0.00
20150703144846 65 246 0.0 0.0 0.00 0.00 0.00
20150703144745 66 246 0.0 0.0 0.00 0.00 0.00
20150703144645 66 246 0.0 0.0 0.00 0.00 0.00
20150703144545 66 246 0.0 0.0 0.00 0.00 0.00
20150703144445 66 246 0.0 0.0 0.00 0.00 0.00
20150703144345 66 246 0.0 0.0 0.00 0.00 0.00
20150703144145 66 246 0.0 0.0 0.00 0.00 0.00
20150703144045 66 246 0.0 0.0 0.00 0.00 0.00
20150703143946 66 246 0.0 0.0 0.00 0.00 0.00
20150703143846 66 246 0.0 0.0 0.00 0.00 0.00
20150703143745 65 246 0.0 0.0 0.00 0.00 0.00
20150703143646 65 246 0.0 0.0 0.00 0.00 0.00
20150703143545 66 246 0.0 0.0 0.00 0.00 0.00
20150703143445 66 246 0.0 0.0 0.00 0.00 0.00
20150703143345 66 246 0.0 0.0 0.00 0.00 0.00
20150703143245 66 246 0.0 0.0 0.00 0.00 0.00
20150703143145 66 246 0.0 0.0 0.00 0.00 0.00
20150703143045 66 246 0.0 0.0 0.00 0.00 0.00
20150703142945 65 246 0.0 0.0 0.00 0.00 0.00
20150703142846 66 246 0.0 0.0 0.00 0.00 0.00
20150703142745 66 246 0.0 0.0 0.00 0.00 0.00
20150703142646 66 246 0.0 0.0 0.00 0.00 0.00
20150703142545 65 246 0.0 0.0 0.00 0.00 0.00
20150703142445 66 246 0.0 0.0 0.00 0.00 0.00
20150703142345 66 246 0.0 0.0 0.00 0.00 0.00
20150703142245 66 246 0.0 0.0 0.00 0.00 0.00
20150703142145 66 246 0.0 0.0 0.00 0.00 0.00
20150703142045 66 246 0.0 0.0 0.00 0.00 0.00
20150703141945 66 246 0.0 0.0 0.00 0.00 0.00
20150703141747 66 246 0.0 0.0 0.00 0.00 0.00
20150703141645 66 246 0.0 0.0 0.00 0.00 0.00
20150703141545 66 246 0.0 0.0 0.00 0.00 0.00
20150703141445 66 246 0.0 0.0 0.00 0.00 0.00
20150703141345 65 246 0.0 0.0 0.00 0.00 0.00
20150703141245 66 246 0.0 0.0 0.00 0.00 0.00
20150703141146 65 246 0.0 0.0 0.00 0.00 0.00
20150703141045 65 246 0.0 0.0 0.00 0.00 0.00
20150703140946 66 246 0.0 0.0 0.00 0.00 0.00
20150703140745 66 246 0.0 0.0 0.00 0.00 0.00
20150703140645 66 246 0.0 0.0 0.00 0.00 0.00
20150703140545 66 246 0.0 0.0 0.00 0.00 0.00
20150703140445 65 246 0.0 0.0 0.00 0.00 0.00
20150703140345 66 246 0.0 0.0 0.00 0.00 0.00
20150703140245 66 246 0.0 0.0 0.00 0.00 0.00
20150703140145 66 246 0.0 0.0 0.00 0.00 0.00
20150703140045 66 246 0.0 0.0 0.00 0.00 0.00
20150703135945 66 246 0.0 0.0 0.00 0.00 0.00
20150703135745 66 246 0.0 0.0 0.00 0.00 0.00
20150703135645 65 246 0.0 0.0 0.00 0.00 0.00
20150703135445 65 246 0.0 0.0 0.00 0.00 0.00
20150703135345 66 246 0.0 0.0 0.00 0.00 0.00
20150703135145 66 252 0.0 0.0 0.00 0.00 0.00
20150703134945 65 252 0.0 0.0 0.00 0.00 0.00
20150703134845 65 252 0.0 0.0 0.00 0.00 0.00
20150703134545 66 252 0.0 0.0 0.00 0.00 0.00
20150703134445 66 252 0.0 0.0 0.00 0.00 0.00
20150703134345 66 252 0.0 0.0 0.00 0.00 0.00
20150703134245 65 252 0.0 0.0 0.00 0.00 0.00
20150703134145 65 252 0.0 0.0 0.00 0.00 0.00
20150703134045 65 252 0.0 0.0 0.00 0.00 0.00
20150703133946 65 252 0.0 0.0 0.00 0.00 0.00
20150703133845 65 252 0.0 0.0 0.00 0.00 0.00
20150703133745 65 252 0.0 0.0 0.00 0.00 0.00
20150703133646 65 252 0.0 0.0 0.00 0.00 0.00
20150703133546 65 252 0.0 0.0 0.00 0.00 0.00
20150703133446 65 252 0.0 0.0 0.00 0.00 0.00
20150703133345 65 252 0.0 0.0 0.00 0.00 0.00
20150703133245 66 252 0.0 0.0 0.00 0.00 0.00
20150703133145 65 252 0.0 0.0 0.00 0.00 0.00
20150703132945 65 252 0.0 0.0 0.00 0.00 0.00
20150703132845 65 252 0.0 0.0 0.00 0.00 0.00
20150703132746 66 252 0.0 0.0 0.00 0.00 0.00
20150703132546 65 252 0.0 0.0 0.00 0.00 0.00
20150703132445 65 252 0.0 0.0 0.00 0.00 0.00
20150703132145 65 217 0.0 0.0 0.00 0.00 0.00